Location: Charbonni�res
(45.9952°N, 2.9982°E)
Time: 07:53:38
(UTC+00:00)

FENGYUN 1C DEB - Visible Passes

Search period start: 21 June 2021 00:00
Search period end: 01 July 2021 00:00
Orbit: 834 x 873 km, 98.9° (Epoch: 20 June)

Date Brightness Start Highest point End Pass type
(mag) Time Alt. Az. Time Alt. Az. Time Alt. Az.
22 Jun ? 21:38:33 10° W 21:39:19 10° W 21:40:05 10° WNW visible
23 Jun ? 21:25:36 10° WSW 21:28:10 13° W 21:30:44 10° WNW visible
24 Jun ? 21:13:35 10° SW 21:17:02 17° W 21:20:28 10° NW visible
25 Jun ? 21:01:52 10° SW 21:05:55 21° W 21:09:57 10° NW visible
26 Jun ? 20:50:18 10° SSW 20:54:48 25° W 20:59:19 10° NW visible
27 Jun ? 20:38:54 10° SSW 20:43:44 31° W 20:48:34 10° NW visible
28 Jun ? 20:27:33 10° SSW 20:32:40 38° W 20:37:46 10° NNW visible
29 Jun ? 20:16:20 10° S 20:21:37 46° W 20:26:54 10° NNW visible
